Location: Niagara
(43.2500°N, 79.0670°W)
Time: 01:49:27
(UTC-04:00)

N. Korean satellite - Pass Details

Date: 15 October 2017
Orbit: 459 x 517 km, 97.2° (Epoch: 17 October)

Event Time Altitude Azimuth Distance (km) Brightness Sun altitude
Rises 18:59:59 0° 157° (SSE) 2,541 10.0 -5.7°
Reaches altitude 10° 19:02:04 10° 153° (SSE) 1,656 9.1 -6.1°
Maximum altitude 19:05:33 55° 75° (ENE) 579 6.6 -6.7°
Drops below altitude 10° 19:09:00 10° 357° (N) 1,640 9.2 -7.3°
Sets 19:11:04 0° 353° (N) 2,515 10.2 -7.7°
